Weather History for York, PA

Change the Weather History Date:

Saturday, October 6, 2012

  Actual Average Record
Temperature  
Mean Temperature 57 °F -  
Max Temperature 70 °F 0 °F 87 °F (2013)
Min Temperature 46 °F - 32 °F (1999)
Degree Days  
Heating Degree Days 8    
Growing Degree Days 7 (Base 50)    
Moisture  
Dew Point 50 °F    
Average Humidity 67    
Maximum Humidity 86    
Minimum Humidity 48    
Precipitation  
Precipitation 0.00 in - - ()
Sea Level Pressure  
Sea Level Pressure 29.92 in    
Wind  
Wind Speed 6 mph (WSW)    
Max Wind Speed 14 mph    
Max Gust Speed 25 mph    
Visibility 10 miles    
Events      
Averages and records for this station are not official NWS values.
T = Trace of Precipitation, MM = Missing Value Source: NWS Daily Summary

Daily Weather History Graph

Daily Weather History Graph

Search for Another Location

Airport:

Trip Planner

Search our weather history database for the weather conditions in past years. The results will help you decide how hot, cold, wet, or windy it might be!

Date:

Astronomy

Oct. 06, 2012 Rise Set
Actual Time 7:09 AM EDT 6:41 PM EDT
Civil Twilight 6:42 AM EDT 7:08 PM EDT
Nautical Twilight 6:10 AM EDT 7:39 PM EDT
Astronomical Twilight 5:39 AM EDT 8:10 PM EDT
Moon 10:55 PM EDT (10/6) 1:01 PM EDT (10/6)
Length of Visible Light 12h 25m
Length of Day
11h 31m
Waning Gibbous, 65% of the Moon is Illuminated
Oct 6
Waning Gibbous
Oct 8
Last Quarter
Oct 15
New
Oct 21
First Quarter
Oct 29
Full

Hourly Weather History & Observations

Time (EDT) Temp. Dew Point Humidity Pressure Visibility Wind Dir Wind Speed Gust Speed Precip Events Conditions
12:53 AM 64.9 °F 53.1 °F 65% 29.92 in 10.0 mi SSW 6.9 mph - N/A   Clear
1:53 AM 64.9 °F 53.1 °F 65% 29.91 in 10.0 mi SSW 6.9 mph - N/A   Clear
2:53 AM 64.9 °F 53.1 °F 65% 29.88 in 10.0 mi SSW 8.1 mph - N/A   Clear
3:53 AM 64.0 °F 53.1 °F 67% 29.86 in 10.0 mi South 5.8 mph - N/A   Clear
4:53 AM 64.0 °F 54.0 °F 70% 29.86 in 10.0 mi SW 5.8 mph - N/A   Clear
5:53 AM 63.0 °F 54.0 °F 72% 29.85 in 10.0 mi SSW 8.1 mph - N/A   Clear
6:53 AM 63.0 °F 54.0 °F 72% 29.85 in 10.0 mi SW 5.8 mph - N/A   Clear
7:53 AM 62.1 °F 54.0 °F 75% 29.84 in 10.0 mi SSW 5.8 mph - N/A   Clear
8:53 AM 66.0 °F 55.9 °F 70% 29.84 in 10.0 mi Calm Calm - N/A   Scattered Clouds
9:53 AM 64.9 °F 55.9 °F 73% 29.84 in 10.0 mi West 5.8 mph - N/A   Overcast
10:53 AM 66.9 °F 55.9 °F 68% 29.85 in 10.0 mi WSW 6.9 mph - N/A   Mostly Cloudy
11:53 AM 68.0 °F 55.9 °F 65% 29.86 in 10.0 mi West 8.1 mph - N/A   Overcast
12:53 PM 66.9 °F 55.0 °F 66% 29.88 in 10.0 mi WNW 8.1 mph 20.7 mph N/A   Overcast
1:53 PM 66.9 °F 51.1 °F 57% 29.89 in 10.0 mi WNW 13.8 mph 24.2 mph N/A   Mostly Cloudy
2:53 PM 66.0 °F 46.0 °F 48% 29.91 in 10.0 mi West 13.8 mph 20.7 mph N/A   Clear
3:53 PM 63.0 °F 46.0 °F 54% 29.94 in 10.0 mi NW 10.4 mph 25.3 mph N/A   Mostly Cloudy
4:53 PM 61.0 °F 43.0 °F 52% 29.94 in 10.0 mi NW 12.7 mph 18.4 mph N/A   Partly Cloudy
5:53 PM 59.0 °F 41.0 °F 51% 29.97 in 10.0 mi West 4.6 mph - N/A   Clear
6:53 PM 55.0 °F 42.1 °F 62% 29.99 in 10.0 mi Calm Calm - N/A   Clear
7:53 PM 52.0 °F 42.1 °F 69% 30.01 in 10.0 mi Calm Calm - N/A   Clear
8:53 PM 48.0 °F 43.0 °F 83% 30.04 in 10.0 mi Calm Calm - N/A   Clear
9:53 PM 46.0 °F 42.1 °F 86% 30.06 in 10.0 mi Calm Calm - N/A   Clear
10:53 PM 46.9 °F 42.1 °F 83% 30.07 in 10.0 mi WNW 3.5 mph - N/A   Clear